Stations météo

Publicité
New York City, ny, Etats-Unis (2074728): Température de l'air & dewpoint: 14.07.2018 08:00:00 - 20.07.2018 08:00:00 (EDT)New York City, ny, Etats-Unis (2074728): Vitesse du vent: 14.07.2018 08:00:00 - 20.07.2018 08:00:00 (EDT)New York City, ny, Etats-Unis (2074728): Direction du vent: 14.07.2018 08:00:00 - 20.07.2018 08:00:00 (EDT)New York City, ny, Etats-Unis (2074728): reduced air pressure: 14.07.2018 08:00:00 - 20.07.2018 08:00:00 (EDT)New York City, ny, Etats-Unis (2074728): visibility: 14.07.2018 08:00:00 - 20.07.2018 08:00:00 (EDT)New York City, ny, Etats-Unis (2074728): Quantités de précipitations: 14.07.2018 08:00:00 - 20.07.2018 08:00:00 (EDT)
Date & Time tt [°C] td [°C] ff [km/h] ff [knt] dd ppp [hPa] vv [km] rr [mm]
20.07.2018 08:00:00 22,2 17,8 0 0 N 1021,2 16 -
20.07.2018 07:00:00 20,6 18,3 0 0 N 1021,1 13 -
20.07.2018 06:00:00 20,6 18,3 0 0 N 1020,7 16 -
20.07.2018 05:00:00 20,6 17,8 0 0 N 1020,3 16 -
20.07.2018 04:00:00 21,7 17,8 0 0 N 1020,3 16 -
20.07.2018 03:00:00 21,1 16,7 8 4 WSW 1020,3 16 -
20.07.2018 02:00:00 21,7 15,6 0 0 N 1020,3 16 -
20.07.2018 01:00:00 21,7 15,0 0 0 N 1020,3 16 -
20.07.2018 00:00:00 21,7 14,4 5 3 WSW 1020,0 16 -
19.07.2018 23:00:00 22,2 13,9 0 0 N 1019,6 16 -
19.07.2018 22:00:00 22,8 13,3 5 3 - 1019,7 16 -
19.07.2018 21:00:00 22,8 12,2 0 0 N 1018,9 16 -
19.07.2018 20:00:00 23,9 12,8 5 3 - 1018,5 16 -
19.07.2018 19:00:00 25,0 12,2 5 3 - 1018,3 16 -
19.07.2018 18:00:00 25,6 12,2 - - - 1018,3 16 -
19.07.2018 17:00:00 26,1 12,8 - - - 1018,3 16 -
19.07.2018 16:00:00 27,2 8,9 0 0 N 1018,2 16 -
19.07.2018 15:00:00 27,2 9,4 0 0 N 1018,5 16 -
19.07.2018 14:00:00 27,8 8,3 0 0 N 1018,8 16 -
19.07.2018 13:00:00 26,7 9,4 5 3 NE 1019,2 16 -
19.07.2018 12:00:00 25,6 8,3 5 3 - 1019,6 16 -
19.07.2018 11:00:00 23,9 9,4 - - - 1019,7 16 -
19.07.2018 10:00:00 22,8 9,4 8 4 - 1019,3 16 -
19.07.2018 09:00:00 21,7 8,9 9 5 ENE 1019,0 16 -
19.07.2018 08:00:00 20,6 9,4 5 3 - 1018,5 16 -
19.07.2018 07:00:00 19,4 10,6 0 0 N 1018,2 16 -
19.07.2018 06:00:00 19,4 11,7 8 4 NE 1017,7 16 -
19.07.2018 05:00:00 19,4 11,7 0 0 N 1017,1 16 -
19.07.2018 04:00:00 19,4 11,7 8 4 - 1016,7 16 -
19.07.2018 03:00:00 20,6 10,6 0 0 N 1016,4 16 -
19.07.2018 02:00:00 22,2 10,0 8 4 NNW 1016,1 16 -
19.07.2018 01:00:00 22,2 10,6 0 0 N 1015,7 16 -
19.07.2018 00:00:00 23,3 10,6 8 4 - 1015,4 16 -
18.07.2018 23:00:00 23,9 10,6 5 3 - 1015,1 16 -
18.07.2018 22:00:00 25,0 10,6 0 0 N 1014,6 16 -
18.07.2018 21:00:00 26,1 9,4 5 3 - 1013,7 16 -
18.07.2018 20:00:00 26,7 10,0 0 0 N 1013,1 16 -
18.07.2018 19:00:00 27,8 9,4 13 7 N 1012,5 16 -
18.07.2018 18:00:00 28,3 11,1 0 0 N 1011,9 16 -
18.07.2018 17:00:00 27,2 13,3 5 3 - 1011,6 16 -
18.07.2018 16:00:00 26,7 15,0 5 3 - 1012,0 16 -
18.07.2018 15:00:00 27,8 14,4 9 5 - 1012,1 16 -
18.07.2018 14:00:00 28,3 13,9 5 3 NE 1012,5 16 -
18.07.2018 13:00:00 28,3 15,0 - - - 1012,4 16 -
18.07.2018 12:00:00 26,7 15,6 5 3 - 1012,6 16 -
18.07.2018 11:00:00 24,4 16,7 11 6 NE 1012,6 16 -
18.07.2018 10:00:00 23,3 16,7 5 3 - 1012,6 16 -
18.07.2018 09:00:00 22,2 16,1 0 0 N 1012,3 16 -
18.07.2018 08:00:00 20,6 15,6 - - - 1011,8 16 -
18.07.2018 07:00:00 19,4 15,0 9 5 WNW 1011,1 16 -
18.07.2018 06:00:00 20,0 14,4 5 3 - 1010,8 16 -
18.07.2018 05:00:00 20,0 15,6 13 7 NNW 1010,5 16 -
18.07.2018 04:00:00 20,6 16,7 0 0 N 1010,1 16 -
18.07.2018 03:00:00 21,1 20,6 9 5 - 1009,5 13 -
18.07.2018 02:00:00 21,7 20,6 0 0 N 1009,5 13 -
18.07.2018 01:00:00 21,7 21,1 0 0 N 1009,5 10 -
18.07.2018 00:00:00 21,7 21,1 0 0 N 1009,6 16 -
17.07.2018 23:00:00 22,2 21,7 0 0 N 1010,3 4,0 -
17.07.2018 22:00:00 22,2 21,7 8 4 WNW 1010,4 10 -
17.07.2018 21:00:00 21,7 21,1 0 0 N 1009,4 11 0,5
17.07.2018 20:00:00 21,7 21,1 0 0 N 1010,1 8 0,0
17.07.2018 19:00:00 21,7 21,1 5 3 - 1010,2 11 0,0
17.07.2018 18:00:00 22,2 21,7 0 0 N 1008,9 3,2 0,3
17.07.2018 17:00:00 21,7 21,1 0 0 N 1009,0 3,2 1,5
17.07.2018 16:00:00 21,7 21,1 0 0 N 1008,8 6 27,7
17.07.2018 15:00:00 21,7 21,1 - - - 1008,6 - 22,4
17.07.2018 14:00:00 29,4 22,8 8 4 - 1007,6 13 -
17.07.2018 13:00:00 30,0 23,9 8 4 - 1008,8 13 -
17.07.2018 12:00:00 29,4 23,9 5 3 - 1009,6 11 -
17.07.2018 11:00:00 28,9 23,9 8 4 SW 1010,1 13 -
17.07.2018 10:00:00 28,3 23,9 5 3 - 1010,6 11 -
17.07.2018 09:00:00 26,7 22,8 8 4 - 1011,4 11 -
17.07.2018 08:00:00 25,6 22,8 8 4 SW 1011,4 13 -
17.07.2018 07:00:00 25,6 22,8 5 3 - 1011,4 13 -
17.07.2018 06:00:00 25,0 22,8 8 4 - 1011,7 13 -
17.07.2018 05:00:00 25,6 22,2 5 3 SW 1011,6 15 -
17.07.2018 04:00:00 26,1 21,7 5 3 - 1011,8 15 -
17.07.2018 03:00:00 26,7 21,7 5 3 - 1012,3 15 -
17.07.2018 02:00:00 27,2 21,1 - - - 1012,5 16 -
17.07.2018 01:00:00 27,2 21,7 0 0 N 1012,7 15 -
17.07.2018 00:00:00 27,8 21,7 9 5 - 1012,8 15 -
16.07.2018 23:00:00 28,3 21,7 5 3 - 1012,5 16 -
16.07.2018 22:00:00 28,3 21,7 0 0 N 1012,7 15 -
16.07.2018 21:00:00 27,8 22,2 5 3 - 1012,2 15 -
16.07.2018 20:00:00 27,8 22,2 0 0 N 1012,2 13 -
16.07.2018 19:00:00 28,9 21,7 5 3 - 1012,5 15 -
16.07.2018 18:00:00 28,9 21,7 5 3 - 1012,6 15 -
16.07.2018 17:00:00 29,4 22,8 8 4 - 1013,0 13 -
16.07.2018 16:00:00 30,6 23,3 - - - 1013,1 13 -
16.07.2018 15:00:00 31,1 23,3 8 4 - 1013,4 11 -
16.07.2018 14:00:00 31,7 22,8 11 6 WSW 1013,9 13 -
16.07.2018 13:00:00 31,7 22,2 0 0 N 1014,5 13 -
16.07.2018 12:00:00 31,1 21,7 0 0 N 1014,8 13 -
16.07.2018 11:00:00 29,4 22,2 0 0 N 1015,2 13 -
16.07.2018 10:00:00 27,8 21,7 0 0 N 1015,4 13 -
16.07.2018 09:00:00 26,7 21,7 5 3 - 1015,4 15 -
16.07.2018 08:00:00 25,6 21,1 0 0 N 1015,3 16 -
16.07.2018 07:00:00 25,0 21,1 8 4 WSW 1015,1 16 -
16.07.2018 06:00:00 24,4 20,6 0 0 N 1014,9 16 -
16.07.2018 05:00:00 24,4 20,6 0 0 N 1014,4 16 -
16.07.2018 04:00:00 24,4 20,6 0 0 N 1014,7 16 -
16.07.2018 03:00:00 25,0 20,6 8 4 W 1014,7 16 -
16.07.2018 02:00:00 25,6 20,6 5 3 - 1014,9 16 -
16.07.2018 01:00:00 25,6 20,6 9 5 WSW 1015,0 16 -
16.07.2018 00:00:00 26,1 21,1 5 3 WSW 1014,9 16 -
15.07.2018 23:00:00 26,1 21,1 5 3 WSW 1014,9 16 -
15.07.2018 22:00:00 26,1 20,6 0 0 N 1014,9 16 -
15.07.2018 21:00:00 26,7 19,4 5 3 WSW 1014,5 16 -
15.07.2018 20:00:00 26,7 18,9 9 5 WSW 1014,0 16 -
15.07.2018 19:00:00 26,7 19,4 8 4 - 1013,7 16 -
15.07.2018 18:00:00 27,8 20,6 8 4 - 1013,7 16 -
15.07.2018 17:00:00 27,8 20,0 5 3 - 1013,8 16 -
15.07.2018 16:00:00 26,7 21,1 9 5 - 1014,6 16 -
15.07.2018 15:00:00 26,1 20,6 0 0 N 1015,1 16 -
15.07.2018 14:00:00 25,0 20,6 11 6 - 1015,6 16 -
15.07.2018 13:00:00 22,2 20,6 9 5 WSW 1016,3 13 0,0
15.07.2018 12:00:00 21,7 20,0 8 4 - 1016,6 13 -
15.07.2018 11:00:00 22,2 20,6 9 5 W 1016,2 13 -
15.07.2018 10:00:00 21,7 20,6 5 3 - 1015,8 13 0,0
15.07.2018 09:00:00 21,1 20,6 8 4 W 1016,2 8 0,0
15.07.2018 08:00:00 21,1 20,6 0 0 N 1016,5 8 1,3
15.07.2018 07:00:00 21,1 20,6 0 0 N 1017,0 2,8 0,0
15.07.2018 06:00:00 21,1 20,0 0 0 N 1016,9 1,2 4,1
15.07.2018 05:00:00 21,1 20,6 5 3 - 1016,4 4,8 0,8
15.07.2018 04:00:00 21,1 20,6 5 3 W 1016,6 11 4,8
15.07.2018 03:00:00 21,1 20,0 0 0 N 1016,8 1,2 0,8
15.07.2018 02:00:00 21,1 20,0 0 0 N 1017,1 16 0,3
15.07.2018 01:00:00 21,1 20,0 0 0 N 1018,0 6 8,9
15.07.2018 00:00:00 27,8 18,3 5 3 NE 1017,5 16 -
14.07.2018 23:00:00 28,3 16,1 8 4 - 1016,5 16 -
14.07.2018 22:00:00 28,9 16,7 8 4 - 1016,5 16 -
14.07.2018 21:00:00 28,9 17,2 8 4 - 1015,7 16 -
14.07.2018 20:00:00 30,0 16,7 11 6 WSW 1015,5 16 -
14.07.2018 19:00:00 30,6 16,7 11 6 - 1015,7 16 -
14.07.2018 18:00:00 30,6 17,2 9 5 - 1016,4 16 -
14.07.2018 17:00:00 30,6 16,1 8 4 - 1016,7 16 -
14.07.2018 16:00:00 30,6 16,1 0 0 N 1017,3 16 -
14.07.2018 15:00:00 30,0 16,1 11 6 WSW 1017,7 16 -
14.07.2018 14:00:00 30,6 15,6 5 3 - 1018,0 16 -
14.07.2018 13:00:00 30,0 16,7 5 3 - 1018,8 16 -
14.07.2018 12:00:00 27,8 16,7 0 0 N 1019,4 16 -
14.07.2018 11:00:00 27,2 16,7 8 4 - 1019,8 16 -
14.07.2018 10:00:00 25,6 16,1 8 4 - 1020,2 16 -
14.07.2018 09:00:00 23,9 16,1 0 0 N 1020,6 16 -
14.07.2018 08:00:00 22,8 15,6 8 4 - 1020,4 16 -

tt = Température de l'air
td = dewpoint
ff = Vitesse du vent
dd = Direction du vent
ppp = reduced air pressure
vv = visibility
rr = Quantités de précipitations

stations d'obs. à proximité